FIREFLY ALPHA R/B, 68128

Orbit data source: Space-Track

FIREFLY ALPHA R/B, 68128 is space debris in LEO originally from a launch on Thu, 12 Mar 2026 UTC launched from the Air Force Western Test Range (AFWTR). Debris objects in space refer to the collection of defunct objects orbiting the Earth. Examples of debris include non-operational satellites, rocket bodies, and fragments generated from explosions, collisions, or faulty payload assembly.

Loading next visibility...
Identifier
68128, 2026-046B
Orbit
LEO
Country
Flag of USUS
Related business
Manufacturer
Firefly
Mission
Spacecraft
Bus & Motor
FIREFLY A2, Unknown motor
Mass
909 kg wet, 909 kg dry
Launch date (UTC)
2026-03-12 (2 months ago)
Launch vehicle
Unknown
Launch site
Air Force Western Test Range (AFWTR)
Object type
Payload
Rocket body
Debris
Shape & HBR
Unknown shape, 8.0 m
Radar Cross Section
RCS unknown

Expand to show TLE details & history
Last TLE update: 8 hours ago

TLE from 8 hours ago
0 FIREFLY ALPHA R/B
1 68128U 26046B   26121.70316958  .00049912  00000-0  60647-3 0  9995
2 68128 123.0904  79.0378 0018921  76.0676 284.2489 15.59914402  7906
Epoch: 2026-05-01T16:52Z
TLE epoch observation values (Epoch: 2026-05-01T16:52:33.851Z)
Latitude
0.00001°
Longitude
-33.73487°
Altitude
386.087 km
Speed
7.681 km/s
True Right ascension
05h 16m 09s
True Declination
0° 00' 00"
Sunlit
Object was in daylight at epoch
Visualization orbit readout
Latitude
Unknown
Longitude
Unknown
Altitude
Unknown
Speed
Unknown
Apparent Right ascension
Unknown
Apparent Declination
Unknown
Sunlit
N/A
Visualization observer readout
Local Sidereal Time
08:32:40
Azimuth
Unknown
Elevation
Unknown
Doppler factor
Unknown
Orbital elements
Apogee altitude
400.366 km
Perigee altitude
374.763 km
Semi-major axis
6,765.701 km
Eccentricity
0.00189
Inclination
123.0904°
RAAN
79.0378°
Arg. of periapsis
76.0676°
True anomaly
284.03863°
Mean anomaly
284.2489°
Eccentric anomaly
284.14378°
Mean motion
3.90008 °/min
Orbital period
92.31 mins
BSTAR
0.00060647
Loading maneuver chart data...
Computing Atmospheric mass density...
Loading historical data...
Loading historical data...
Loading historical data...
Loading historical data...
Loading historical data...
Loading historical data...
Loading historical data...
Other satellites on launch #46 in the year 2026 (2026-03-12 UTC)

Documentation

Showing up to 5 results
|